This is the latest recevied weather packets stored in our database for station/object DW9280. If no packets are shown the sender has not sent any weather packets the latest 10 day(s).
| Time | Temp. | Humidity | Pressure | Rain* | Wind** | Luminosity | Snow |
|---|---|---|---|---|---|---|---|
| 1788074043 | 18.33° C | 96% | 1007 hPa | 3.3 mm | - | 74 W/m² | - |
| 1788073743 | 18.33° C | 96% | 1006.8 hPa | 3.3 mm | - | 54 W/m² | - |
| 1788073444 | 18.33° C | 96% | 1006.9 hPa | 2.79 mm | - | 40 W/m² | - |
| 1788073180 | 18.33° C | 96% | 1006.9 hPa | 2.03 mm | - | 28 W/m² | - |
| 1788072845 | 18.33° C | 95% | 1006.8 hPa | 2.03 mm | - | 26 W/m² | - |
| 1788072544 | 18.33° C | 96% | 1006.8 hPa | 1.78 mm | - | 30 W/m² | - |
| 1788072280 | 18.33° C | 96% | 1006.7 hPa | 1.52 mm | - | 40 W/m² | - |
| 1788071938 | 18.33° C | 96% | 1006.7 hPa | 1.02 mm | - | 21 W/m² | - |
| 1788071636 | 18.33° C | 95% | 1006.6 hPa | 0.51 mm | - | 49 W/m² | - |
| 1788071335 | 18.33° C | 95% | 1006.6 hPa | 0.51 mm | - | 67 W/m² | - |
| 1788071034 | 18.33° C | 95% | 1006.5 hPa | 0.51 mm | - | 12 W/m² | - |
| 1788070724 | 18.33° C | 95% | 1006.4 hPa | 0.51 mm | - | 40 W/m² | - |
| 1788070473 | 18.33° C | 95% | 1006.4 hPa | 0.51 mm | - | 28 W/m² | - |
| 1788070122 | 18.33° C | 95% | 1006.3 hPa | 0.51 mm | - | 12 W/m² | - |
| 1788069818 | 18.33° C | 95% | 1006.1 hPa | 0.51 mm | - | 26 W/m² | - |
| 1788069520 | 18.33° C | 95% | 1006.1 hPa | 0.51 mm | - | 21 W/m² | - |
| 1788069213 | 18.33° C | 95% | 1006.1 hPa | 0.25 mm | - | 12 W/m² | - |
| 1788069003 | 18.33° C | 95% | 1006 hPa | 0 mm | - | 16 W/m² | - |
| 1788068667 | 18.33° C | 95% | 1006 hPa | 0 mm | - | 14 W/m² | - |
| 1788068366 | 18.33° C | 95% | 1005.9 hPa | 0 mm | - | 14 W/m² | - |
| 1788068011 | 17.78° C | 95% | 1005.9 hPa | 0 mm | - | 11 W/m² | - |
| 1788067713 | 17.78° C | 95% | 1005.8 hPa | 0 mm | - | 7 W/m² | - |
| 1788067411 | 17.78° C | 95% | 1005.7 hPa | 0 mm | - | 7 W/m² | - |
| 1788067111 | 17.78° C | 95% | 1005.7 hPa | 0 mm | - | 11 W/m² | - |
| 1788066812 | 17.78° C | 95% | 1005.6 hPa | 0 mm | - | 12 W/m² | - |
* Rain latest hour (hover to see other rain measurements)
** Current wind speed in m/s (hover to see current wind gust speed)